Powrót do katalogu

STARLINK-36055

AktywnyŁącznośćVLEO
NORAD 66846·PAYLOAD·🇺🇸 United States

Wystrzelony Dec 2, 2025 z Vandenberg Space Force Base

Loading…

Następne Przeloty (najbliższe 24 godziny)

TLE

ŚwieżeSource: CelesTrak SupGP

Epoka: Sep 15, 2026, 03:33 UTC

1 66846C 25280AB  26258.14840278 -.00013716  00000+0 -11495-2 0  2583
2 66846  70.0012 216.8751 0003344 267.7789  37.6956 14.98335807    17

Śledź STARLINK-36055 w czasie rzeczywistym z AllMySat

Download on the App Store